When you browse on this site, cookies collect data to enhance your experience and personalize the content and advertising you see.
Visit our Privacy Policy to learn more. By continuing to use the site, you agree to this use of cookies and data.
  • In Österreich
  • Länderverzeichnis
  • Für 7 Tage
  • Wassertemperatur
  • Wetterkarte
  • News
  • Widgets
  • user-avatar
    Anmelden

    Stündliche Wetter Tepeapulco

    Heute, 19 Januar, Sonntag

    Zeit Temperatur Niederschläge Wind Luftdruck Luftfeuchtigkeit
    00:00 +10°C° 0.1 mm 2 m/S 562 mmHg 91%
    01:00 +11°C° 0.1 mm 1 m/S 562 mmHg 91%
    02:00 +10°C° 0.1 mm 1 m/S 562 mmHg 92%
    03:00 +10°C° 0 mm 1 m/S 562 mmHg 92%
    04:00 +9°C° 0 mm 2 m/S 562 mmHg 92%
    05:00 +9°C° 0 mm 2 m/S 562 mmHg 92%
    06:00 +10°C° 0 mm 2 m/S 563 mmHg 89%
    07:00 +10°C° 0 mm 2 m/S 564 mmHg 87%
    08:00 +12°C° 0 mm 2 m/S 564 mmHg 85%
    09:00 +12°C° 0.1 mm 3 m/S 565 mmHg 78%
    10:00 +13°C° 0.1 mm 3 m/S 565 mmHg 72%
    11:00 +14°C° 0.1 mm 3 m/S 566 mmHg 66%
    12:00 +14°C° 0.3 mm 4 m/S 565 mmHg 67%
    13:00 +13°C° 0.3 mm 4 m/S 565 mmHg 69%
    14:00 +13°C° 0.3 mm 5 m/S 564 mmHg 70%
    15:00 +12°C° 0.3 mm 4 m/S 564 mmHg 75%
    16:00 +11°C° 0.3 mm 4 m/S 564 mmHg 79%
    17:00 +10°C° 0.3 mm 4 m/S 563 mmHg 83%
    18:00 +10°C° 0.8 mm 3 m/S 564 mmHg 85%
    19:00 +9°C° 0.8 mm 3 m/S 564 mmHg 86%
    20:00 +9°C° 0.8 mm 3 m/S 564 mmHg 88%
    21:00 +9°C° 0.3 mm 3 m/S 564 mmHg 88%
    22:00 +9°C° 0.3 mm 2 m/S 564 mmHg 88%
    23:00 +9°C° 0.3 mm 2 m/S 564 mmHg 88%

    Morgen, 20 Januar, Montag

    Zeit Temperatur Niederschläge Wind Luftdruck Luftfeuchtigkeit
    00:00 +9°C° 0 mm 2 m/S 564 mmHg 88%
    01:00 +8°C° 0 mm 2 m/S 564 mmHg 87%
    02:00 +8°C° 0 mm 2 m/S 564 mmHg 87%
    03:00 +8°C° 0.3 mm 2 m/S 564 mmHg 88%
    04:00 +8°C° 0.3 mm 2 m/S 564 mmHg 89%
    05:00 +8°C° 0.3 mm 2 m/S 564 mmHg 90%
    06:00 +8°C° 0.6 mm 2 m/S 564 mmHg 89%
    07:00 +8°C° 0.6 mm 2 m/S 565 mmHg 88%
    08:00 +8°C° 0.6 mm 2 m/S 566 mmHg 87%
    09:00 +9°C° 0.3 mm 2 m/S 566 mmHg 83%
    10:00 +10°C° 0.3 mm 3 m/S 566 mmHg 79%
    11:00 +10°C° 0.3 mm 3 m/S 566 mmHg 75%
    12:00 +10°C° 0.1 mm 4 m/S 566 mmHg 73%
    13:00 +11°C° 0.1 mm 4 m/S 565 mmHg 72%
    14:00 +10°C° 0.1 mm 5 m/S 565 mmHg 70%
    15:00 +10°C° 0 mm 4 m/S 564 mmHg 73%
    16:00 +8°C° 0 mm 4 m/S 564 mmHg 76%
    17:00 +8°C° 0 mm 4 m/S 563 mmHg 79%
    18:00 +8°C° 0 mm 3 m/S 564 mmHg 81%
    19:00 +8°C° 0 mm 3 m/S 564 mmHg 82%
    20:00 +7°C° 0 mm 3 m/S 564 mmHg 83%
    21:00 +7°C° 0 mm 3 m/S 564 mmHg 84%
    22:00 +7°C° 0 mm 2 m/S 564 mmHg 85%
    23:00 +7°C° 0 mm 2 m/S 564 mmHg 86%

    übermorgen, 21 Januar, Dienstag

    Zeit Temperatur Niederschläge Wind Luftdruck Luftfeuchtigkeit
    00:00 +7°C° 0 mm 2 m/S 563 mmHg 85%
    01:00 +7°C° 0 mm 2 m/S 563 mmHg 84%
    02:00 +7°C° 0 mm 2 m/S 563 mmHg 83%
    03:00 +7°C° 0 mm 1 m/S 563 mmHg 85%
    04:00 +7°C° 0 mm 1 m/S 562 mmHg 88%
    05:00 +6°C° 0 mm 1 m/S 562 mmHg 91%
    06:00 +7°C° 0 mm 1 m/S 562 mmHg 86%
    07:00 +8°C° 0 mm 1 m/S 563 mmHg 81%
    08:00 +9°C° 0 mm 1 m/S 564 mmHg 76%
    09:00 +11°C° 0 mm 1 m/S 564 mmHg 68%
    10:00 +13°C° 0 mm 1 m/S 565 mmHg 61%
    11:00 +15°C° 0 mm 2 m/S 566 mmHg 53%
    12:00 +16°C° 0 mm 2 m/S 566 mmHg 49%
    13:00 +16°C° 0 mm 2 m/S 565 mmHg 45%
    14:00 +17°C° 0 mm 3 m/S 565 mmHg 41%
    15:00 +16°C° 0 mm 2 m/S 565 mmHg 47%
    16:00 +15°C° 0 mm 2 m/S 564 mmHg 53%
    17:00 +14°C° 0 mm 2 m/S 563 mmHg 59%
    18:00 +13°C° 0 mm 1 m/S 563 mmHg 66%
    19:00 +12°C° 0 mm 1 m/S 563 mmHg 72%
    20:00 +11°C° 0 mm 1 m/S 563 mmHg 78%
    21:00 +11°C° 0 mm 1 m/S 563 mmHg 76%
    22:00 +11°C° 0 mm 1 m/S 563 mmHg 73%
    23:00 +11°C° 0 mm 1 m/S 563 mmHg 70%

    22 Januar, Mittwoch

    Zeit Temperatur Niederschläge Wind Luftdruck Luftfeuchtigkeit
    00:00 +11°C° 0 mm 1 m/S 562 mmHg 73%
    01:00 +10°C° 0 mm 1 m/S 561 mmHg 76%
    02:00 +9°C° 0 mm 1 m/S 560 mmHg 79%
    03:00 +9°C° 0 mm 1 m/S 560 mmHg 80%
    04:00 +9°C° 0 mm 1 m/S 560 mmHg 81%
    05:00 +8°C° 0 mm 1 m/S 559 mmHg 81%
    06:00 +10°C° 0 mm 1 m/S 560 mmHg 76%
    07:00 +10°C° 0 mm 2 m/S 561 mmHg 70%
    08:00 +12°C° 0 mm 2 m/S 562 mmHg 65%
    09:00 +14°C° 0 mm 2 m/S 562 mmHg 57%
    10:00 +16°C° 0 mm 2 m/S 563 mmHg 49%
    11:00 +17°C° 0 mm 3 m/S 563 mmHg 41%
    12:00 +18°C° 0 mm 3 m/S 563 mmHg 38%
    13:00 +19°C° 0 mm 3 m/S 563 mmHg 35%
    14:00 +20°C° 0 mm 3 m/S 562 mmHg 33%
    15:00 +18°C° 0 mm 3 m/S 562 mmHg 38%
    16:00 +17°C° 0 mm 3 m/S 561 mmHg 44%
    17:00 +16°C° 0 mm 3 m/S 561 mmHg 49%
    18:00 +15°C° 0 mm 2 m/S 561 mmHg 54%
    19:00 +14°C° 0 mm 2 m/S 561 mmHg 60%
    20:00 +13°C° 0 mm 1 m/S 561 mmHg 65%
    21:00 +13°C° 0 mm 1 m/S 561 mmHg 68%
    22:00 +12°C° 0 mm 1 m/S 560 mmHg 71%
    23:00 +12°C° 0 mm 1 m/S 560 mmHg 74%

    23 Januar, Donnerstag

    Zeit Temperatur Niederschläge Wind Luftdruck Luftfeuchtigkeit
    00:00 +11°C° 0 mm 1 m/S 559 mmHg 75%
    01:00 +11°C° 0 mm 1 m/S 559 mmHg 77%
    02:00 +10°C° 0 mm 1 m/S 558 mmHg 79%
    03:00 +10°C° 0 mm 1 m/S 558 mmHg 80%
    04:00 +9°C° 0 mm 1 m/S 558 mmHg 81%
    05:00 +9°C° 0 mm 1 m/S 558 mmHg 82%
    06:00 +10°C° 0 mm 1 m/S 559 mmHg 77%
    07:00 +10°C° 0 mm 2 m/S 560 mmHg 72%
    08:00 +10°C° 0 mm 2 m/S 560 mmHg 67%
    09:00 +13°C° 0 mm 2 m/S 561 mmHg 58%
    10:00 +15°C° 0 mm 2 m/S 562 mmHg 49%
    11:00 +16°C° 0 mm 3 m/S 562 mmHg 40%
    12:00 +17°C° 0 mm 3 m/S 562 mmHg 39%
    13:00 +17°C° 0 mm 4 m/S 561 mmHg 37%
    14:00 +18°C° 0 mm 4 m/S 561 mmHg 35%
    15:00 +17°C° 0 mm 4 m/S 561 mmHg 40%
    16:00 +16°C° 0 mm 3 m/S 560 mmHg 45%
    17:00 +13°C° 0 mm 3 m/S 560 mmHg 50%
    18:00 +13°C° 0 mm 2 m/S 560 mmHg 59%
    19:00 +12°C° 0 mm 2 m/S 559 mmHg 67%
    20:00 +10°C° 0 mm 2 m/S 559 mmHg 76%
    21:00 +10°C° 0 mm 1 m/S 559 mmHg 76%
    22:00 +10°C° 0 mm 1 m/S 559 mmHg 76%
    23:00 +10°C° 0 mm 1 m/S 559 mmHg 76%

    24 Januar, Freitag

    Zeit Temperatur Niederschläge Wind Luftdruck Luftfeuchtigkeit
    00:00 +10°C° 0 mm 1 m/S 558 mmHg 75%
    01:00 +10°C° 0 mm 1 m/S 558 mmHg 73%
    02:00 +9°C° 0 mm 1 m/S 557 mmHg 72%
    03:00 +9°C° 0 mm 1 m/S 557 mmHg 72%
    04:00 +8°C° 0 mm 0 m/S 557 mmHg 73%
    05:00 +7°C° 0 mm 0 m/S 557 mmHg 73%
    06:00 +9°C° 0 mm 0 m/S 558 mmHg 67%
    07:00 +11°C° 0 mm 1 m/S 559 mmHg 62%
    08:00 +12°C° 0 mm 1 m/S 560 mmHg 56%
    09:00 +13°C° 0 mm 1 m/S 561 mmHg 50%
    10:00 +15°C° 0 mm 1 m/S 562 mmHg 43%
    11:00 +16°C° 0 mm 0 m/S 562 mmHg 37%
    12:00 +18°C° 0 mm 1 m/S 562 mmHg 35%
    13:00 +19°C° 0 mm 1 m/S 562 mmHg 32%
    14:00 +18°C° 0 mm 2 m/S 562 mmHg 30%
    15:00 +17°C° 0 mm 2 m/S 561 mmHg 38%
    16:00 +16°C° 0 mm 3 m/S 561 mmHg 46%
    17:00 +14°C° 0 mm 4 m/S 561 mmHg 53%
    18:00 +13°C° 0.1 mm 3 m/S 561 mmHg 59%
    19:00 +12°C° 0.1 mm 3 m/S 561 mmHg 65%
    20:00 +11°C° 0.1 mm 3 m/S 561 mmHg 71%
    21:00 +10°C° 0 mm 2 m/S 561 mmHg 74%
    22:00 +10°C° 0 mm 2 m/S 561 mmHg 76%
    23:00 +9°C° 0 mm 2 m/S 561 mmHg 78%
    Mehr zeigen